Pagrindinis puslapis
METAR-TAF:

METAR-TAF

Oro uostai :

Kimble County Airport

Junction, Teksasas, Jungtinės Amerikos Valstijos

platuma: 30-30-39N, ilguma: 099-45-59W, Aukštis: 527 m

Dabartinis oras

Ataskaita buvo paskelbta 22 minutes, ne 10:51 UTC
Vėjas 6 kt iš Vakarų
Temperatūra 17°C
Drėgmė 100%
Slėgis 1021 hPa
Matomumas: 16.1 km
Giedras dangus

METAR: KJCT 291051Z AUTO 28006KT 10SM CLR 17/17 A3014 RMK AO2 SLP179 T01670167

Laikas: 06:13 (11:13 UTC)

Prognozė

Ataskaita buvo paskelbta 5 valandos ir 33 minutes, ne 05:40 UTC
Prognozė galioja nuo 29 metu 06 UTC su 30 metu 06 UTC
Vėjas 3 kt nuo kintamojo kryptimis
Matomumas: 10 km
Išsisklaidę debesys ne aukštis 25000 ft
Nuo 29 metu 1400 UTC
Vėjas 9 kt iš Šiaurės Rytų
Matomumas: 10 km
Giedras dangus
Nuo 30 metu 0200 UTC
Vėjas 3 kt nuo kintamojo kryptimis
Matomumas: 10 km
Giedras dangus

TAF: KJCT 290540Z 2906/3006 VRB03KT P6SM SCT250 FM291400 05009KT P6SM SKC FM300200 VRB03KT P6SM SKC

Orai ataskaitas ir orų prognozės (METAR, TAF).

turimą stotys yra geltonos ir raudonos taškus žemėlapyje.

Perkelti pele per norėdami pamatyti stoties vardą.

Tada spustelėkite, norėdami matyti oro stebėjimo ir prognozės.

Norėdami pakeisti žemėlapį: spustelėkite ant žalios mygtukų su juodo kryžiaus žemyn,; žalią mygtuką su brūkšneliu, jei norite nutolinti; arba žalių rodyklių gretimoms žemėlapius.


METAR-TAF: